,,,PA_Meas_PMT16A,,PR_Meas_QMR101_102,,RH_Meas_QMH101,,SR_Meas_QMS101,,TA_Meas_QMH101,,GenWind,,GenWind,
date,time,status,PA,status,PR,status,RH,status,SR,status,TA,status,DirAvg,status,SpdAvg,
2008-05-06, 00:00:05,VALID,1003.13,VALID,0,VALID,90.9973,VALID,0.100563,VALID,24.6398,VALID,277,VALID,0.242188,
2008-05-06, 00:01:05,VALID,1003.09,VALID,0,VALID,91.0583,VALID,0.100563,VALID,24.6185,VALID,277,VALID,0,
2008-05-06, 00:02:05,VALID,1003.07,VALID,0,VALID,91.1422,VALID,0.100563,VALID,24.599,VALID,275,VALID,0.701172,
2008-05-06, 00:03:05,VALID,1003.06,VALID,0,VALID,91.1728,VALID,0.100563,VALID,24.599,VALID,303,VALID,0.299609,
2008-05-06, 00:04:05,VALID,1003.03,VALID,0,VALID,91.2109,VALID,0,VALID,24.599,VALID,271,VALID,0.563281,
2008-05-06, 00:05:05,VALID,1003.05,VALID,0,VALID,91.1575,VALID,0.100563,VALID,24.6185,VALID,328,VALID,0.457422,
2008-05-06, 00:06:05,VALID,1003.04,VALID,0,VALID,91.1728,VALID,0,VALID,24.6398,VALID,355,VALID,0.471875,
2008-05-06, 00:07:05,VALID,1003.04,VALID,0,VALID,91.2109,VALID,0,VALID,24.6398,VALID,347,VALID,0.474219,
2008-05-06, 00:08:05,VALID,1003.07,VALID,0,VALID,91.2643,VALID,0,VALID,24.6593,VALID,356,VALID,0.494141,
2008-05-06, 00:09:05,VALID,1003.1,VALID,0,VALID,91.3024,VALID,0,VALID,24.6593,VALID,343,VALID,0.360156,
2008-05-06, 00:10:05,VALID,1003.09,VALID,0,VALID,91.2185,VALID,0,VALID,24.6593,VALID,281,VALID,0.48125,
2008-05-06, 00:11:05,VALID,1003.1,VALID,0,VALID,91.1041,VALID,0,VALID,24.6788,VALID,296,VALID,0.747266,
2008-05-06, 00:12:05,VALID,1003.09,VALID,0,VALID,91.0583,VALID,0,VALID,24.7177,VALID,280,VALID,0.451562,
2008-05-06, 00:13:05,VALID,1003.11,VALID,0,VALID,91.0659,VALID,0,VALID,24.7586,VALID,305,VALID,0.407422,
2008-05-06, 00:14:05,VALID,1003.13,VALID,0,VALID,90.9439,VALID,0,VALID,24.7372,VALID,303,VALID,0.878516,
2008-05-06, 00:15:05,VALID,1003.12,VALID,0,VALID,90.982,VALID,0,VALID,24.7567,VALID,297,VALID,0.50625,
2008-05-06, 00:16:04,VALID,1003.15,VALID,0,VALID,90.8142,VALID,0,VALID,24.7975,VALID,292,VALID,0.830078,
2008-05-06, 00:17:04,VALID,1003.11,VALID,0,VALID,90.7303,VALID,0,VALID,24.8151,VALID,293,VALID,0.583984,
2008-05-06, 00:18:04,VALID,1003.11,VALID,0,VALID,90.7226,VALID,0,VALID,24.8132,VALID,279,VALID,0.485938,
2008-05-06, 00:19:04,VALID,1003.12,VALID,0,VALID,90.715,VALID,0,VALID,24.8151,VALID,262,VALID,0.508203,
2008-05-06, 00:20:04,VALID,1003.12,VALID,0,VALID,90.6998,VALID,0,VALID,24.8151,VALID,275,VALID,0.501172,
2008-05-06, 00:21:04,VALID,1003.11,VALID,0,VALID,90.4785,VALID,0,VALID,24.854,VALID,307,VALID,0.386719,
2008-05-06, 00:22:04,VALID,1003.14,VALID,0,VALID,90.4404,VALID,0.100563,VALID,24.8327,VALID,308,VALID,0.514063,
2008-05-06, 00:23:04,VALID,1003.15,VALID,0,VALID,90.5396,VALID,0.100563,VALID,24.854,VALID,5,VALID,0.660937,
2008-05-06, 00:24:04,VALID,1003.14,VALID,0,VALID,90.5624,VALID,0,VALID,24.8735,VALID,300,VALID,0.539453,
2008-05-06, 00:25:04,VALID,1003.1,VALID,0,VALID,90.5548,VALID,0,VALID,24.8911,VALID,348,VALID,1.15313,
2008-05-06, 00:26:04,VALID,1003.11,VALID,0,VALID,90.4709,VALID,0.100563,VALID,24.9087,VALID,353,VALID,0.967578,
2008-05-06, 00:27:04,VALID,1003.12,VALID,0,VALID,90.3336,VALID,0.100563,VALID,24.9495,VALID,307,VALID,0.205859,
2008-05-06, 00:28:04,VALID,1003.09,VALID,0,VALID,90.1886,VALID,0.100563,VALID,24.9476,VALID,357,VALID,0.900391,
2008-05-06, 00:29:04,VALID,1003.14,VALID,0,VALID,90.3946,VALID,0.100563,VALID,24.9904,VALID,219,VALID,0.371094,
2008-05-06, 00:30:04,VALID,1003.1,VALID,0,VALID,90.0513,VALID,0.100563,VALID,24.9885,VALID,310,VALID,0.841406,
2008-05-06, 00:31:04,VALID,1003.11,VALID,0,VALID,89.9674,VALID,0.100563,VALID,25.0469,VALID,354,VALID,0.696484,
2008-05-06, 00:32:04,VALID,1003.09,VALID,0,VALID,89.9826,VALID,0.100563,VALID,25.0663,VALID,350,VALID,0.459766,
2008-05-06, 00:33:04,VALID,1003.09,VALID,0,VALID,90.0055,VALID,0,VALID,25.0663,VALID,2,VALID,0.759375,
2008-05-06, 00:34:04,VALID,1003.06,VALID,0,VALID,90.036,VALID,0.100563,VALID,25.0469,VALID,336,VALID,0.508594,
2008-05-06, 00:35:04,VALID,1003.07,VALID,0,VALID,90.12,VALID,0.100563,VALID,25.0663,VALID,10,VALID,0.550391,
2008-05-06, 00:36:04,VALID,1003.06,VALID,0,VALID,89.9521,VALID,0.100563,VALID,25.1053,VALID,330,VALID,0.696875,
2008-05-06, 00:37:04,VALID,1003.08,VALID,0,VALID,89.6622,VALID,0.100563,VALID,25.2027,VALID,2,VALID,0.304688,
2008-05-06, 00:38:04,VALID,1003.08,VALID,0,VALID,89.5402,VALID,0.100563,VALID,25.2611,VALID,66,VALID,0.360938,
2008-05-06, 00:39:04,VALID,1003.02,VALID,0,VALID,89.3418,VALID,0.100563,VALID,25.339,VALID,31,VALID,0.384375,
2008-05-06, 00:40:04,VALID,1003.03,VALID,0,VALID,89.1816,VALID,0,VALID,25.3974,VALID,272,VALID,0.878906,
2008-05-06, 00:41:04,VALID,1003.02,VALID,0,VALID,88.6247,VALID,0.100563,VALID,25.4753,VALID,176,VALID,0.605469,
2008-05-06, 00:42:04,VALID,1003.01,VALID,0,VALID,87.816,VALID,0,VALID,25.5941,VALID,328,VALID,0.919922,
2008-05-06, 00:43:04,VALID,1002.98,VALID,0,VALID,87.6787,VALID,0.100563,VALID,25.7109,VALID,261,VALID,0.286719,
2008-05-06, 00:44:04,VALID,1002.93,VALID,0,VALID,87.076,VALID,0.100563,VALID,25.748,VALID,311,VALID,0.807031,
2008-05-06, 00:45:04,VALID,1002.91,VALID,0,VALID,86.7251,VALID,0,VALID,25.8064,VALID,341,VALID,0.830859,
2008-05-06, 00:46:04,VALID,1002.9,VALID,0,VALID,86.5268,VALID,0.100563,VALID,25.8863,VALID,355,VALID,0.392188,
2008-05-06, 00:47:04,VALID,1002.91,VALID,0,VALID,86.3513,VALID,0.100563,VALID,25.9232,VALID,268,VALID,1.14336,
2008-05-06, 00:48:04,VALID,1002.89,VALID,0,VALID,86.3894,VALID,0.100563,VALID,25.9642,VALID,307,VALID,0.392969,
2008-05-06, 00:49:04,VALID,1002.89,VALID,0,VALID,85.9851,VALID,0.100563,VALID,25.9642,VALID,208,VALID,0.319531,
2008-05-06, 00:50:04,VALID,1002.88,VALID,0,VALID,86.1072,VALID,0,VALID,25.9817,VALID,166,VALID,0.349219,
2008-05-06, 00:51:04,VALID,1002.85,VALID,0,VALID,85.5655,VALID,0,VALID,26.0051,VALID,282,VALID,0.974609,
2008-05-06, 00:52:04,VALID,1002.85,VALID,0,VALID,85.3901,VALID,0,VALID,26.0635,VALID,259,VALID,0.651172,
2008-05-06, 00:53:04,VALID,1002.81,VALID,0,VALID,85.329,VALID,0,VALID,26.122,VALID,233,VALID,0.683203,
2008-05-06, 00:54:04,VALID,1002.78,VALID,0,VALID,85.1917,VALID,0,VALID,26.1609,VALID,98,VALID,0.594531,
2008-05-06, 00:55:04,VALID,1002.76,VALID,0,VALID,84.9934,VALID,0,VALID,26.1609,VALID,306,VALID,0.539453,
2008-05-06, 00:56:04,VALID,1002.72,VALID,0,VALID,84.7492,VALID,0,VALID,26.2214,VALID,334,VALID,0.919531,
2008-05-06, 00:57:04,VALID,1002.71,VALID,0,VALID,84.8484,VALID,0,VALID,26.2389,VALID,275,VALID,0.572656,
2008-05-06, 00:58:04,VALID,1002.69,VALID,0,VALID,84.9094,VALID,0,VALID,26.2194,VALID,56,VALID,0.253125,
2008-05-06, 00:59:04,VALID,1002.68,VALID,0,VALID,84.6577,VALID,0,VALID,26.2194,VALID,213,VALID,0.913281,
2008-05-06, 01:00:04,VALID,1002.64,VALID,0,VALID,84.4517,VALID,0,VALID,26.2389,VALID,84,VALID,0.354297,
2008-05-06, 01:01:04,VALID,1002.66,VALID,0,VALID,84.4899,VALID,0,VALID,26.2584,VALID,261,VALID,0.825781,
2008-05-06, 01:02:04,VALID,1002.63,VALID,0,VALID,84.7263,VALID,0,VALID,26.2759,VALID,353,VALID,0.135156,
2008-05-06, 01:03:04,VALID,1002.61,VALID,0,VALID,84.6424,VALID,0,VALID,26.2564,VALID,332,VALID,0.533203,
2008-05-06, 01:04:04,VALID,1002.56,VALID,0,VALID,84.2762,VALID,0,VALID,26.2778,VALID,212,VALID,1.4625,
2008-05-06, 01:05:04,VALID,1002.59,VALID,0,VALID,84.467,VALID,0,VALID,26.3148,VALID,310,VALID,0.596875,
2008-05-06, 01:06:04,VALID,1002.58,VALID,0,VALID,84.4822,VALID,0,VALID,26.3538,VALID,262,VALID,0.559766,
2008-05-06, 01:07:04,VALID,1002.58,VALID,0,VALID,84.589,VALID,0,VALID,26.3538,VALID,358,VALID,0.0632813,
2008-05-06, 01:08:04,VALID,1002.55,VALID,0,VALID,84.6272,VALID,0,VALID,26.3148,VALID,353,VALID,0.124219,
2008-05-06, 01:09:04,VALID,1002.52,VALID,0,VALID,84.8332,VALID,0,VALID,26.3538,VALID,284,VALID,0.90625,
2008-05-06, 01:10:04,VALID,1002.51,VALID,0,VALID,84.8484,VALID,0,VALID,26.3518,VALID,251,VALID,0.515625,
2008-05-06, 01:11:04,VALID,1002.54,VALID,0,VALID,84.9018,VALID,0,VALID,26.3323,VALID,226,VALID,0.125781,
2008-05-06, 01:12:04,VALID,1002.52,VALID,0,VALID,85.2375,VALID,0,VALID,26.3343,VALID,311,VALID,0.142969,
2008-05-06, 01:13:04,VALID,1002.49,VALID,0,VALID,85.123,VALID,0.100563,VALID,26.3148,VALID,312,VALID,0.119922,
2008-05-06, 01:14:04,VALID,1002.48,VALID,0,VALID,85.4511,VALID,0.100563,VALID,26.3148,VALID,322,VALID,0.787891,
2008-05-06, 01:15:04,VALID,1002.47,VALID,0,VALID,85.5655,VALID,0,VALID,26.2739,VALID,281,VALID,0.104687,
2008-05-06, 01:16:04,VALID,1002.41,VALID,0,VALID,85.8783,VALID,0,VALID,26.2544,VALID,281,VALID,0,
2008-05-06, 01:17:04,VALID,1002.38,VALID,0,VALID,85.8707,VALID,0,VALID,26.2564,VALID,281,VALID,0,
2008-05-06, 01:18:04,VALID,1002.33,VALID,0,VALID,85.9927,VALID,0,VALID,26.2154,VALID,312,VALID,0.389844,
2008-05-06, 01:19:04,VALID,1002.27,VALID,0,VALID,86.3055,VALID,0,VALID,26.2369,VALID,15,VALID,0.558984,
2008-05-06, 01:20:04,VALID,1002.24,VALID,0,VALID,86.3132,VALID,0,VALID,26.2369,VALID,322,VALID,0.213672,
2008-05-06, 01:21:04,VALID,1002.22,VALID,0,VALID,86.0995,VALID,0,VALID,26.2953,VALID,176,VALID,1.34141,
2008-05-06, 01:22:04,VALID,1002.16,VALID,0,VALID,85.7562,VALID,0,VALID,26.3343,VALID,237,VALID,0.54375,
2008-05-06, 01:23:04,VALID,1002.17,VALID,0,VALID,85.7105,VALID,0,VALID,26.3538,VALID,331,VALID,0.216016,
2008-05-06, 01:24:04,VALID,1002.09,VALID,0,VALID,85.4892,VALID,0,VALID,26.3733,VALID,259,VALID,0.937891,
2008-05-06, 01:25:04,VALID,1002.1,VALID,0,VALID,85.1307,VALID,0,VALID,26.4317,VALID,258,VALID,0.767187,
2008-05-06, 01:26:04,VALID,1002.1,VALID,0,VALID,85.0544,VALID,0,VALID,26.4492,VALID,269,VALID,0.989062,
2008-05-06, 01:27:04,VALID,1002.07,VALID,0,VALID,84.2762,VALID,0,VALID,26.5486,VALID,327,VALID,0.692578,
2008-05-06, 01:28:04,VALID,1002.04,VALID,0,VALID,84.2915,VALID,0,VALID,26.6091,VALID,351,VALID,0.153906,
2008-05-06, 01:29:04,VALID,1001.99,VALID,0,VALID,84.261,VALID,0,VALID,26.5855,VALID,269,VALID,0.553125,
2008-05-06, 01:30:04,VALID,1002,VALID,0,VALID,84.5356,VALID,0,VALID,26.5876,VALID,185,VALID,0.230469,
2008-05-06, 01:31:04,VALID,1001.98,VALID,0,VALID,84.6729,VALID,0,VALID,26.5486,VALID,220,VALID,0.413672,
2008-05-06, 01:32:04,VALID,1001.97,VALID,0,VALID,85.1459,VALID,0,VALID,26.5291,VALID,277,VALID,0.548828,
2008-05-06, 01:33:04,VALID,1001.95,VALID,0,VALID,85.2222,VALID,0,VALID,26.5291,VALID,274,VALID,0,
2008-05-06, 01:34:04,VALID,1001.96,VALID,0,VALID,85.3824,VALID,0,VALID,26.4687,VALID,292,VALID,0.407813,
2008-05-06, 01:35:04,VALID,1001.96,VALID,0,VALID,85.3901,VALID,0,VALID,26.4492,VALID,202,VALID,0.833594,
2008-05-06, 01:36:04,VALID,1001.95,VALID,0,VALID,85.5503,VALID,0,VALID,26.5116,VALID,250,VALID,0.291406,
2008-05-06, 01:37:04,VALID,1001.94,VALID,0,VALID,85.5274,VALID,0,VALID,26.4707,VALID,225,VALID,0.176172,
2008-05-06, 01:38:04,VALID,1001.96,VALID,0,VALID,85.6113,VALID,0,VALID,26.4901,VALID,163,VALID,0.285547,
2008-05-06, 01:39:04,VALID,1001.95,VALID,0,VALID,85.5732,VALID,0,VALID,26.5291,VALID,271,VALID,0.582422,
2008-05-06, 01:40:04,VALID,1001.9,VALID,0,VALID,85.474,VALID,0,VALID,26.5291,VALID,336,VALID,0.350391,
2008-05-06, 01:41:04,VALID,1001.89,VALID,0,VALID,85.7181,VALID,0,VALID,26.5096,VALID,306,VALID,0.21875,
2008-05-06, 01:42:04,VALID,1001.86,VALID,0,VALID,85.7944,VALID,0,VALID,26.4881,VALID,313,VALID,0.626172,
2008-05-06, 01:43:04,VALID,1001.86,VALID,0,VALID,85.7028,VALID,0,VALID,26.4707,VALID,308,VALID,0.612109,
2008-05-06, 01:44:04,VALID,1001.84,VALID,0,VALID,85.6723,VALID,0,VALID,26.5096,VALID,193,VALID,0.872656,
2008-05-06, 01:45:04,VALID,1001.82,VALID,0,VALID,85.6037,VALID,0,VALID,26.5096,VALID,307,VALID,0.837891,
2008-05-06, 01:46:04,VALID,1001.82,VALID,0,VALID,85.4663,VALID,0,VALID,26.5291,VALID,191,VALID,0.896875,
2008-05-06, 01:47:04,VALID,1001.79,VALID,0,VALID,85.5655,VALID,0,VALID,26.5311,VALID,315,VALID,0.652344,
2008-05-06, 01:48:04,VALID,1001.8,VALID,0,VALID,85.5579,VALID,0,VALID,26.4901,VALID,171,VALID,0.288281,
2008-05-06, 01:49:04,VALID,1001.82,VALID,0,VALID,85.5579,VALID,0,VALID,26.5096,VALID,222,VALID,0.0101562,
2008-05-06, 01:50:04,VALID,1001.8,VALID,0,VALID,85.1459,VALID,0,VALID,26.5116,VALID,268,VALID,1.45664,
2008-05-06, 01:51:04,VALID,1001.79,VALID,0,VALID,84.8332,VALID,0,VALID,26.5096,VALID,292,VALID,1.00352,
2008-05-06, 01:52:04,VALID,1001.81,VALID,0,VALID,84.8103,VALID,0,VALID,26.5681,VALID,282,VALID,1.08945,
2008-05-06, 01:53:04,VALID,1001.81,VALID,0,VALID,84.856,VALID,0,VALID,26.5876,VALID,302,VALID,0.476172,
2008-05-06, 01:54:04,VALID,1001.8,VALID,0,VALID,84.6501,VALID,0,VALID,26.5876,VALID,273,VALID,0.275,
2008-05-06, 01:55:04,VALID,1001.78,VALID,0,VALID,84.7263,VALID,0,VALID,26.5486,VALID,208,VALID,0.992578,
2008-05-06, 01:56:04,VALID,1001.76,VALID,0,VALID,84.4517,VALID,0,VALID,26.5701,VALID,309,VALID,1.24961,
2008-05-06, 01:57:04,VALID,1001.73,VALID,0,VALID,84.0169,VALID,0,VALID,26.5506,VALID,313,VALID,0.483203,
2008-05-06, 01:58:04,VALID,1001.7,VALID,0,VALID,83.643,VALID,0,VALID,26.5486,VALID,304,VALID,1.42734,
2008-05-06, 01:59:04,VALID,1001.69,VALID,0,VALID,82.9717,VALID,0,VALID,26.5876,VALID,277,VALID,1.34336,
2008-05-06, 02:00:04,VALID,1001.67,VALID,0,VALID,83.0556,VALID,0,VALID,26.6265,VALID,274,VALID,0.763281,
2008-05-06, 02:01:04,VALID,1001.65,VALID,0,VALID,82.7962,VALID,0,VALID,26.6245,VALID,295,VALID,1.25937,
2008-05-06, 02:02:04,VALID,1001.64,VALID,0,VALID,82.9183,VALID,0,VALID,26.6655,VALID,288,VALID,1.07187,
2008-05-06, 02:03:04,VALID,1001.63,VALID,0,VALID,83.109,VALID,0,VALID,26.6265,VALID,228,VALID,0.465625,
2008-05-06, 02:04:04,VALID,1001.63,VALID,0,VALID,82.9717,VALID,0,VALID,26.6265,VALID,308,VALID,0.589453,
2008-05-06, 02:05:04,VALID,1001.62,VALID,0,VALID,83.2692,VALID,0,VALID,26.6285,VALID,312,VALID,0.321875,
2008-05-06, 02:06:04,VALID,1001.6,VALID,0,VALID,83.4218,VALID,0,VALID,26.5876,VALID,257,VALID,0.343359,
2008-05-06, 02:07:04,VALID,1001.57,VALID,0,VALID,83.4981,VALID,0,VALID,26.5486,VALID,253,VALID,0.817187,
2008-05-06, 02:08:04,VALID,1001.57,VALID,0,VALID,83.5591,VALID,0,VALID,26.5076,VALID,291,VALID,1.28711,
2008-05-06, 02:09:04,VALID,1001.56,VALID,0,VALID,83.4218,VALID,0,VALID,26.5486,VALID,244,VALID,0.576563,
2008-05-06, 02:10:04,VALID,1001.52,VALID,0,VALID,83.8872,VALID,0,VALID,26.5506,VALID,276,VALID,0.304297,
2008-05-06, 02:11:04,VALID,1001.53,VALID,0,VALID,83.8414,VALID,0,VALID,26.5486,VALID,278,VALID,0.575,
2008-05-06, 02:12:04,VALID,1001.55,VALID,0,VALID,84.0931,VALID,0,VALID,26.5291,VALID,300,VALID,0.316406,
2008-05-06, 02:13:04,VALID,1001.55,VALID,0,VALID,84.1313,VALID,0,VALID,26.4901,VALID,302,VALID,0.330469,
2008-05-06, 02:14:04,VALID,1001.54,VALID,0,VALID,84.1237,VALID,0,VALID,26.4901,VALID,224,VALID,0.606641,
2008-05-06, 02:15:04,VALID,1001.54,VALID,0,VALID,84.1542,VALID,0,VALID,26.5096,VALID,282,VALID,0.792188,
2008-05-06, 02:16:04,VALID,1001.53,VALID,0,VALID,84.2228,VALID,0,VALID,26.5096,VALID,262,VALID,0.773047,
2008-05-06, 02:17:04,VALID,1001.56,VALID,0,VALID,84.3068,VALID,0,VALID,26.5291,VALID,255,VALID,0.839063,
2008-05-06, 02:18:04,VALID,1001.52,VALID,0,VALID,84.2686,VALID,0,VALID,26.5096,VALID,241,VALID,0.756641,
2008-05-06, 02:19:04,VALID,1001.54,VALID,0,VALID,84.2762,VALID,0,VALID,26.5096,VALID,274,VALID,0.453125,
2008-05-06, 02:20:04,VALID,1001.53,VALID,0,VALID,84.1847,VALID,0,VALID,26.5506,VALID,297,VALID,0.985937,
2008-05-06, 02:21:04,VALID,1001.5,VALID,0,VALID,84.2686,VALID,0,VALID,26.5681,VALID,276,VALID,0.879687,
2008-05-06, 02:22:04,VALID,1001.48,VALID,0,VALID,84.322,VALID,0,VALID,26.607,VALID,270,VALID,0.893359,
2008-05-06, 02:23:04,VALID,1001.49,VALID,0,VALID,84.5204,VALID,0,VALID,26.6655,VALID,236,VALID,0.468359,
2008-05-06, 02:24:04,VALID,1001.48,VALID,0,VALID,84.4212,VALID,0,VALID,26.6655,VALID,304,VALID,0.694922,
2008-05-06, 02:25:04,VALID,1001.52,VALID,0,VALID,84.4746,VALID,0,VALID,26.646,VALID,298,VALID,0.589453,
2008-05-06, 02:26:04,VALID,1001.49,VALID,0,VALID,84.7645,VALID,0,VALID,26.6265,VALID,267,VALID,0.357422,
2008-05-06, 02:27:04,VALID,1001.49,VALID,0,VALID,84.2991,VALID,0,VALID,26.607,VALID,321,VALID,1.10938,
2008-05-06, 02:28:04,VALID,1001.51,VALID,0,VALID,84.6653,VALID,0,VALID,26.5876,VALID,191,VALID,0.376563,
2008-05-06, 02:29:04,VALID,1001.47,VALID,0,VALID,83.5744,VALID,0,VALID,26.6285,VALID,289,VALID,1.98281,
2008-05-06, 02:30:04,VALID,1001.51,VALID,0,VALID,83.8033,VALID,0,VALID,26.6265,VALID,222,VALID,0.930078,
2008-05-06, 02:31:04,VALID,1001.46,VALID,0,VALID,83.2235,VALID,0,VALID,26.6285,VALID,202,VALID,0.551562,
2008-05-06, 02:32:04,VALID,1001.43,VALID,0,VALID,83.048,VALID,0,VALID,26.6265,VALID,40,VALID,0.347656,
2008-05-06, 02:33:04,VALID,1001.45,VALID,0,VALID,82.9412,VALID,0,VALID,26.5876,VALID,248,VALID,0.732031,
2008-05-06, 02:34:04,VALID,1001.43,VALID,0,VALID,82.5674,VALID,0,VALID,26.5876,VALID,301,VALID,0.575391,
2008-05-06, 02:35:04,VALID,1001.41,VALID,0,VALID,82.2241,VALID,0,VALID,26.607,VALID,222,VALID,0.517969,
2008-05-06, 02:36:04,VALID,1001.36,VALID,0,VALID,81.9342,VALID,0,VALID,26.6091,VALID,297,VALID,1.37461,
2008-05-06, 02:37:04,VALID,1001.34,VALID,0,VALID,81.1942,VALID,0,VALID,26.607,VALID,201,VALID,0.542578,
2008-05-06, 02:38:04,VALID,1001.31,VALID,0,VALID,81.034,VALID,0,VALID,26.607,VALID,243,VALID,0.493359,
2008-05-06, 02:39:04,VALID,1001.26,VALID,0,VALID,81.5222,VALID,0,VALID,26.607,VALID,266,VALID,0.975,
2008-05-06, 02:40:04,VALID,1001.28,VALID,0,VALID,81.1331,VALID,0,VALID,26.607,VALID,273,VALID,0.915234,
2008-05-06, 02:41:04,VALID,1001.25,VALID,0,VALID,81.3544,VALID,0,VALID,26.607,VALID,242,VALID,0.0957031,
2008-05-06, 02:42:04,VALID,1001.27,VALID,0,VALID,81.835,VALID,0,VALID,26.5876,VALID,304,VALID,0.480469,
2008-05-06, 02:43:04,VALID,1001.23,VALID,0,VALID,81.9113,VALID,0,VALID,26.5291,VALID,313,VALID,0.228906,
2008-05-06, 02:44:04,VALID,1001.26,VALID,0,VALID,81.896,VALID,0,VALID,26.4901,VALID,271,VALID,0.842969,
2008-05-06, 02:45:04,VALID,1001.23,VALID,0,VALID,82.102,VALID,0,VALID,26.4901,VALID,344,VALID,0.298438,
2008-05-06, 02:46:04,VALID,1001.22,VALID,0,VALID,82.102,VALID,0,VALID,26.4512,VALID,283,VALID,0.706641,
2008-05-06, 02:47:04,VALID,1001.2,VALID,0,VALID,82.3232,VALID,0,VALID,26.4317,VALID,353,VALID,0.847656,
2008-05-06, 02:48:04,VALID,1001.18,VALID,0,VALID,82.102,VALID,0,VALID,26.4122,VALID,209,VALID,1.11875,
2008-05-06, 02:49:04,VALID,1001.13,VALID,0,VALID,82.1554,VALID,0,VALID,26.4317,VALID,264,VALID,0.853516,
2008-05-06, 02:50:04,VALID,1001.11,VALID,0,VALID,82.4758,VALID,0,VALID,26.4512,VALID,210,VALID,1.07578,
2008-05-06, 02:51:04,VALID,1001.09,VALID,0,VALID,82.7199,VALID,0,VALID,26.4317,VALID,218,VALID,0.146094,
2008-05-06, 02:52:04,VALID,1001.03,VALID,0,VALID,82.6589,VALID,0,VALID,26.3733,VALID,286,VALID,0.728125,
2008-05-06, 02:53:04,VALID,1001.05,VALID,0,VALID,82.6208,VALID,0,VALID,26.3733,VALID,53,VALID,0.533594,
2008-05-06, 02:54:04,VALID,1001,VALID,0,VALID,82.3538,VALID,0,VALID,26.3927,VALID,306,VALID,1.40977,
2008-05-06, 02:55:04,VALID,1001.02,VALID,0,VALID,82.5216,VALID,0,VALID,26.4102,VALID,238,VALID,1.00781,
2008-05-06, 02:56:04,VALID,1001.04,VALID,0,VALID,82.3232,VALID,0,VALID,26.4317,VALID,326,VALID,0.590625,
2008-05-06, 02:57:04,VALID,1001.04,VALID,0,VALID,82.3843,VALID,0,VALID,26.4297,VALID,329,VALID,0.232422,
2008-05-06, 02:58:04,VALID,1001.04,VALID,0,VALID,82.5369,VALID,0,VALID,26.4317,VALID,234,VALID,0.435156,
2008-05-06, 02:59:04,VALID,1001.03,VALID,0,VALID,82.8344,VALID,0,VALID,26.4532,VALID,234,VALID,0.0902344,
2008-05-06, 03:00:04,VALID,1001.09,VALID,0,VALID,82.9564,VALID,0,VALID,26.4142,VALID,230,VALID,0.876953,
2008-05-06, 03:01:04,VALID,1001.07,VALID,0,VALID,82.8878,VALID,0,VALID,26.3927,VALID,231,VALID,0.357422,
2008-05-06, 03:02:04,VALID,1001.08,VALID,0,VALID,82.9183,VALID,0,VALID,26.3927,VALID,319,VALID,0.392969,
2008-05-06, 03:03:04,VALID,1001.06,VALID,0,VALID,82.8496,VALID,0,VALID,26.3733,VALID,246,VALID,0.0480469,
2008-05-06, 03:04:04,VALID,1001.08,VALID,0,VALID,82.8649,VALID,0,VALID,26.3538,VALID,246,VALID,0.105469,
2008-05-06, 03:05:04,VALID,1001.04,VALID,0,VALID,83.0556,VALID,0,VALID,26.3343,VALID,244,VALID,0.308203,
2008-05-06, 03:06:04,VALID,1001.05,VALID,0,VALID,82.9946,VALID,0,VALID,26.3168,VALID,258,VALID,0.496875,
2008-05-06, 03:07:04,VALID,1001.07,VALID,0,VALID,83.1929,VALID,0,VALID,26.2759,VALID,302,VALID,0.298438,
2008-05-06, 03:08:04,VALID,1001.04,VALID,0,VALID,82.7962,VALID,0,VALID,26.2564,VALID,272,VALID,1.57891,
2008-05-06, 03:09:04,VALID,1001.04,VALID,0,VALID,82.8496,VALID,0,VALID,26.2759,VALID,239,VALID,0.264453,
2008-05-06, 03:10:04,VALID,1001.04,VALID,0,VALID,82.6665,VALID,0,VALID,26.2973,VALID,242,VALID,1.09844,
2008-05-06, 03:11:04,VALID,1001.01,VALID,0,VALID,82.6055,VALID,0,VALID,26.3148,VALID,258,VALID,1.06914,
2008-05-06, 03:12:04,VALID,1001.02,VALID,0,VALID,82.7352,VALID,0,VALID,26.3558,VALID,288,VALID,0.4875,
2008-05-06, 03:13:04,VALID,1000.99,VALID,0,VALID,82.2088,VALID,0,VALID,26.3343,VALID,327,VALID,0.828516,
2008-05-06, 03:14:04,VALID,1001.04,VALID,0,VALID,82.2164,VALID,0,VALID,26.3323,VALID,298,VALID,0.871094,
2008-05-06, 03:15:04,VALID,1001.07,VALID,0,VALID,82.1402,VALID,0,VALID,26.3927,VALID,203,VALID,1.17266,
2008-05-06, 03:16:04,VALID,1001.12,VALID,0,VALID,82.1554,VALID,0,VALID,26.4122,VALID,283,VALID,0.527344,
2008-05-06, 03:17:04,VALID,1001.16,VALID,0,VALID,82.102,VALID,0,VALID,26.4122,VALID,273,VALID,0.520312,
2008-05-06, 03:18:04,VALID,1001.18,VALID,0,VALID,82.0486,VALID,0,VALID,26.4102,VALID,282,VALID,0.596875,
2008-05-06, 03:19:04,VALID,1001.19,VALID,0,VALID,82.3309,VALID,0,VALID,26.4122,VALID,233,VALID,0.273828,
2008-05-06, 03:20:04,VALID,1001.19,VALID,0,VALID,82.1249,VALID,0,VALID,26.3927,VALID,270,VALID,0.869531,
2008-05-06, 03:21:04,VALID,1001.2,VALID,0,VALID,82.0562,VALID,0,VALID,26.3927,VALID,284,VALID,0.562891,
2008-05-06, 03:22:04,VALID,1001.2,VALID,0,VALID,82.4148,VALID,0,VALID,26.3323,VALID,283,VALID,0.255078,
2008-05-06, 03:23:04,VALID,1001.2,VALID,0,VALID,82.4148,VALID,0,VALID,26.3343,VALID,304,VALID,0.596484,
2008-05-06, 03:24:04,VALID,1001.19,VALID,0,VALID,82.3614,VALID,0,VALID,26.3128,VALID,272,VALID,1.3125,
2008-05-06, 03:25:04,VALID,1001.2,VALID,0,VALID,82.2088,VALID,0,VALID,26.3538,VALID,266,VALID,0.698438,
2008-05-06, 03:26:04,VALID,1001.21,VALID,0,VALID,82.0105,VALID,0,VALID,26.3538,VALID,302,VALID,0.960156,
2008-05-06, 03:27:04,VALID,1001.21,VALID,0,VALID,81.5832,VALID,0,VALID,26.3927,VALID,253,VALID,0.928516,
2008-05-06, 03:28:04,VALID,1001.23,VALID,0,VALID,82.1249,VALID,0,VALID,26.4122,VALID,279,VALID,0.264062,
2008-05-06, 03:29:04,VALID,1001.23,VALID,0,VALID,81.2857,VALID,0,VALID,26.4122,VALID,315,VALID,1.30508,
2008-05-06, 03:30:04,VALID,1001.21,VALID,0,VALID,81.4764,VALID,0,VALID,26.4512,VALID,195,VALID,0.627344,
2008-05-06, 03:31:04,VALID,1001.24,VALID,0,VALID,81.301,VALID,0,VALID,26.4727,VALID,329,VALID,0.257031,
2008-05-06, 03:32:04,VALID,1001.22,VALID,0,VALID,81.5527,VALID,0,VALID,26.4512,VALID,276,VALID,0.626953,
2008-05-06, 03:33:04,VALID,1001.22,VALID,0,VALID,81.568,VALID,0,VALID,26.4317,VALID,249,VALID,0.845312,
2008-05-06, 03:34:04,VALID,1001.24,VALID,0,VALID,81.6672,VALID,0,VALID,26.4317,VALID,227,VALID,0.7,
2008-05-06, 03:35:04,VALID,1001.28,VALID,0,VALID,81.9571,VALID,0,VALID,26.4317,VALID,208,VALID,0.1,
2008-05-06, 03:36:04,VALID,1001.27,VALID,0,VALID,81.9647,VALID,0.100563,VALID,26.4122,VALID,272,VALID,0.889844,
2008-05-06, 03:37:04,VALID,1001.26,VALID,0,VALID,82.0257,VALID,0,VALID,26.3927,VALID,317,VALID,0.355469,
2008-05-06, 03:38:04,VALID,1001.28,VALID,0,VALID,82.5063,VALID,0,VALID,26.3713,VALID,315,VALID,0.0558594,
2008-05-06, 03:39:04,VALID,1001.3,VALID,0,VALID,82.7276,VALID,0,VALID,26.3538,VALID,281,VALID,0.266016,
2008-05-06, 03:40:04,VALID,1001.27,VALID,0,VALID,82.7886,VALID,0.100563,VALID,26.2933,VALID,286,VALID,0.192969,
2008-05-06, 03:41:04,VALID,1001.3,VALID,0,VALID,83.254,VALID,0,VALID,26.2564,VALID,295,VALID,0.561719,
2008-05-06, 03:42:04,VALID,1001.32,VALID,0,VALID,83.2616,VALID,0.100563,VALID,26.2369,VALID,318,VALID,0.459375,